Location: Unspecified
(0.0000°N, 0.0000°E)
Time: 19:42:28
(UTC+00:00)

N. Korean satellite - Visible Passes

Search period start: 25 September 2020 00:00
Search period end: 05 October 2020 00:00
Orbit: 455 x 503 km, 97.2° (Epoch: 25 September)

Date Brightness Start Highest point End Pass type
(mag) Time Alt. Az. Time Alt. Az. Time Alt. Az.
26 Sep 6.7 05:06:23 10° NNE 05:09:53 74° E 05:13:21 10° S visible
27 Sep 9.0 04:41:01 10° NE 04:43:56 25° E 04:46:48 10° SSE visible
29 Sep 6.5 05:21:41 10° N 05:25:05 55° W 05:28:29 10° SSW visible
30 Sep 7.7 04:55:46 10° NNE 04:59:07 45° E 05:02:26 10° S visible
01 Oct 9.7 04:30:53 10° ENE 04:33:08 16° E 04:35:24 10° SE visible
03 Oct 6.4 05:10:50 10° N 05:14:17 89° W 05:17:43 10° S visible
04 Oct 8.7 04:45:16 10° NE 04:48:18 29° E 04:51:19 10° SSE visible
